[[{"header":{"parameterUnit":"m.s-1","parameterCategory":1,"la1":30.2991,"la2":30.254,"lo1":-89.0895,"lo2":-89.0444,"dy":0.0017,"dx":0.0017,"nx":28,"ny":28,"refTime":"2023-08-07T21:00:00:Z","depth":0,"parameterNumber":2,"parameterNumberName":"U-component_of_WINDS"},"data":[0,0,0,0,0,0,0,0,0,0,0,0,0,0,0,0,0,0,0,0,0,0,0,0,0,0,0,0,0,0,0,0,0,0,0,0,0,0,0,0,0,0,0,0,0,0,0,0,0,0,0,0,0,0,0,0,0,0,4.831,4.8311,0,4.8393,4.8394,4.8395,4.8353,4.8351,4.8349,4.8347,4.8435,4.8439,4.8443,0,0,0,0,0,0,0,0,0,0,0,0,0,4.8117,4.8121,4.831,4.8311,4.8312,4.8393,4.8394,4.8395,4.8353,4.8351,4.8348,4.8346,4.8433,4.8438,4.8444,0,0,0,0,0,0,0,0,0,0,0,0,0,4.8201,4.8122,4.831,4.8301,4.8301,4.8393,4.8394,4.8396,4.8354,4.8351,4.8347,4.8344,4.8432,4.8438,4.8444,4.8551,0,0,4.8465,4.8467,0,0,0,0,0,0,0,0,4.8196,4.8208,4.8301,4.8301,4.8302,4.8359,4.8359,4.8448,4.8355,4.8334,4.8347,4.8343,4.8413,4.842,4.8443,4.8555,4.8559,4.8465,4.8469,4.8472,4.8474,0,0,0,0,0,0,0,4.819,4.8204,4.8343,4.8302,4.8303,4.8294,4.8302,4.8375,4.8391,4.8335,4.8333,4.8343,4.8412,4.8437,4.8445,4.856,4.8465,4.8471,4.8475,4.8477,4.8764,4.8768,0,0,0,0,0,0,4.8185,4.82,4.834,4.8345,4.824,4.83,4.8309,4.8344,4.839,4.8393,4.8346,4.8341,4.8427,4.8437,4.8448,4.8576,4.8472,4.8478,4.8482,4.8761,4.8765,4.8769,0,0,0,0,0,0,4.8181,4.8198,4.8337,4.8272,4.8289,4.8306,4.8346,4.8348,4.8372,4.8397,4.84,4.8368,4.8425,4.8439,4.8526,4.8579,4.8481,4.8487,4.8757,4.8762,4.8767,4.8833,0,0,0,0,0,0,4.8175,4.8196,4.8236,4.8273,4.8292,4.8412,4.835,4.8352,4.8384,4.8378,4.8419,4.8423,4.8424,4.8516,4.8532,4.8586,4.8492,4.8752,4.8759,4.8766,4.8826,4.884,4.8852,0,0,0,0,0,4.8169,4.8252,4.8238,4.8256,4.8342,4.8415,4.8427,4.8425,4.8388,4.8429,4.8445,4.8422,4.857,4.8525,4.8543,4.86,4.8749,4.8757,4.8765,4.882,4.8837,4.8852,0,0,0,0,0,0,4.8222,4.8256,4.8242,4.8339,4.8375,4.8408,4.8459,4.8443,4.849,4.8483,4.8479,4.8489,4.8579,4.8598,4.8548,4.8706,4.8654,4.8666,4.869,4.8706,4.8719,4.8712,4.8498,0,0,0,0,0,4.8244,4.83,4.8328,4.8411,4.8429,4.8442,4.8473,4.8469,4.8506,4.8521,4.8543,4.858,4.8635,4.8672,4.8724,4.8829,4.8838,4.8877,4.8889,4.89,4.891,4.8968,4.8986,4.8796,4.8796,4.8796,0,0,4.8293,4.8319,4.8354,4.8422,4.8449,4.8508,4.8454,4.8518,4.8562,4.8531,4.8614,4.8632,4.8673,4.877,4.8814,4.8788,4.8965,4.891,4.8918,4.8923,4.8978,4.8996,4.9012,4.8802,4.8801,4.88,0,0,4.841,4.8435,4.8507,4.8535,4.8576,4.8584,4.8601,4.8638,4.8648,4.8732,4.8709,4.8762,4.8857,4.8887,4.8915,4.9046,4.9026,4.9063,4.913,4.9186,4.9201,4.9214,4.9261,4.9278,4.9073,4.9074,4.9074,0,4.8465,4.8551,4.8547,4.8613,4.8644,4.8618,4.8691,4.8719,4.8776,4.8798,4.8769,4.8888,4.8914,4.9018,4.9049,4.9073,4.9093,4.9058,4.9199,4.9212,4.9225,4.9269,4.9287,4.9078,4.9077,4.9077,4.9076,0,4.8616,4.8677,4.873,4.8785,4.8822,4.8892,4.8899,4.8938,4.8931,4.8942,4.9028,4.9058,4.9116,4.914,4.9134,4.9244,4.9227,4.9199,4.9147,4.9247,4.9289,4.9306,4.9084,4.9082,4.9081,4.908,0,0,4.8769,4.882,4.884,4.8865,4.8909,4.8956,4.9025,4.9081,4.9114,4.9154,4.9213,4.9294,4.9268,4.93,4.9297,4.9347,4.9448,4.9313,4.9313,4.9337,4.9571,4.9592,4.9612,4.9436,4.9439,4.9442,4.9568,0,4.8889,4.9009,4.9008,4.9119,4.9175,4.9151,4.9212,4.9246,4.9258,4.9308,4.9323,4.938,4.9342,4.9361,4.9409,4.9426,4.9495,4.9417,4.9491,4.9493,4.9481,4.9634,4.9656,4.9773,4.9584,4.9587,4.9589,0,4.9046,4.909,4.9207,4.9243,4.9267,4.9321,4.9372,4.942,4.9459,4.9465,4.9501,4.949,4.9562,4.9508,4.9606,4.9553,4.9583,4.9597,4.9601,4.9608,4.9547,4.9644,4.981,4.9828,4.9615,4.9613,4.9611,0,4.9145,4.9235,4.9316,4.9338,4.9382,4.9421,4.9441,4.9477,4.9511,4.9556,4.9578,4.9632,4.9661,4.9704,4.9709,4.9669,4.9808,4.9755,4.9816,4.9816,4.9846,4.9844,5.0019,4.9866,4.9866,4.9865,4.9865,0,4.928,4.9352,4.9362,4.9412,4.9492,4.9491,4.9571,4.9588,4.962,4.9674,4.9657,4.9708,4.9712,4.9764,4.9769,4.985,4.9864,4.9871,4.9871,4.9872,4.9872,4.9892,4.9884,4.987,4.9869,4.9868,4.9867,0,4.9405,4.9414,4.9501,4.9536,4.9546,4.9604,4.9635,4.9683,4.9694,4.9762,4.9778,4.9796,4.9857,4.9866,4.9939,4.9942,5.0039,5.0031,5.0026,5.0025,5.0085,5.0079,5.0279,5.0306,5.0136,5.0137,5.0139,0,4.949,4.9545,4.9586,4.962,4.9642,4.9698,4.9733,4.9734,4.9771,4.9819,4.9862,4.9921,4.9969,5.0068,5.0088,5.0143,5.0136,5.0203,5.0145,5.0144,5.0138,5.0134,5.014,5.0214,5.0216,5.0217,5.0219,0,4.9641,4.9642,4.9692,4.9744,4.9786,4.9827,4.9866,4.9895,4.9901,4.9944,5.0006,5.0043,5.0116,5.0176,5.0231,5.0253,5.0237,5.0237,5.0254,5.0255,5.025,5.0254,5.0056,5.0232,5.0231,5.023,5.0229,5.0229,4.9748,4.9796,4.9832,4.9889,4.9918,4.9955,5.0002,5.0019,5.007,5.0129,5.0127,5.0196,5.0234,5.0306,5.0332,5.0386,5.0364,5.0389,5.0395,5.0401,5.0407,5.0242,5.0396,5.0396,5.0395,5.0395,5.0395,0,4.9898,4.992,4.9972,5.0026,5.0071,5.0052,5.0094,5.0133,5.0193,5.0229,5.0276,5.0348,5.0406,5.0431,5.0488,5.0526,5.0521,5.0541,5.0538,5.0544,5.0423,5.0403,5.0545,5.0545,5.0545,5.0545,5.0545,5.0545,4.9981,5.0061,5.0067,5.0162,5.0184,5.025,5.0276,5.031,5.0339,5.042,5.0467,5.0483,5.0515,5.0574,5.0627,5.0632,5.0654,5.0678,5.0681,5.0568,5.0552,5.0538,5.0518,5.0683,5.0683,5.0797,5.0798,5.0799]},{"header":{"parameterUnit":"m.s-1","parameterCategory":1,"la1":30.2991,"la2":30.254,"lo1":-89.0895,"lo2":-89.0444,"dy":0.0017,"dx":0.0017,"nx":28,"ny":28,"refTime":"2023-08-07T21:00:00:Z","depth":0,"parameterNumber":3,"parameterNumberName":"V-component_of_WINDS"},"data":[0,0,0,0,0,0,0,0,0,0,0,0,0,0,0,0,0,0,0,0,0,0,0,0,0,0,0,0,0,0,0,0,0,0,0,0,0,0,0,0,0,0,0,0,0,0,0,0,0,0,0,0,0,0,0,0,0,0,0.8536,0.8536,0,0.8529,0.8529,0.8529,0.8519,0.8519,0.8519,0.8518,0.851,0.851,0.851,0,0,0,0,0,0,0,0,0,0,0,0,0,0.854,0.854,0.8536,0.8536,0.8536,0.8529,0.8529,0.8529,0.8519,0.8519,0.8518,0.8518,0.851,0.851,0.851,0,0,0,0,0,0,0,0,0,0,0,0,0,0.8536,0.854,0.8536,0.853,0.853,0.8529,0.8529,0.8529,0.8519,0.8519,0.8518,0.8518,0.851,0.851,0.851,0.8514,0,0,0.851,0.851,0,0,0,0,0,0,0,0,0.8536,0.8536,0.8531,0.8531,0.853,0.8525,0.8527,0.8524,0.8519,0.8523,0.8518,0.8518,0.8515,0.8515,0.8514,0.8514,0.8514,0.851,0.851,0.851,0.851,0,0,0,0,0,0,0,0.8537,0.8536,0.8533,0.8531,0.853,0.8527,0.8527,0.8527,0.852,0.8523,0.8522,0.8521,0.8515,0.8514,0.8513,0.8513,0.851,0.851,0.851,0.8509,0.8515,0.8516,0,0,0,0,0,0,0.8538,0.8537,0.8534,0.8533,0.8533,0.8528,0.8527,0.8527,0.852,0.8519,0.8521,0.8521,0.8514,0.8514,0.8513,0.8517,0.851,0.8509,0.8509,0.8515,0.8516,0.8516,0,0,0,0,0,0,0.8538,0.8538,0.8534,0.8535,0.8534,0.8528,0.8528,0.8527,0.8526,0.852,0.8518,0.8522,0.8514,0.8513,0.8514,0.8517,0.8509,0.8509,0.8515,0.8515,0.8516,0.8526,0,0,0,0,0,0,0.8538,0.8538,0.854,0.8535,0.8534,0.8535,0.8528,0.8527,0.8526,0.8525,0.852,0.8518,0.8514,0.8514,0.8514,0.8516,0.8509,0.8515,0.8515,0.8516,0.8525,0.8526,0.8527,0,0,0,0,0,0.8538,0.8543,0.854,0.854,0.8536,0.8536,0.8535,0.853,0.8526,0.8528,0.8523,0.8519,0.8516,0.8514,0.8514,0.8516,0.8515,0.8515,0.8515,0.8524,0.8526,0.8527,0,0,0,0,0,0,0.8549,0.8542,0.8539,0.8542,0.854,0.8534,0.8536,0.8532,0.853,0.8529,0.8522,0.8521,0.8522,0.8519,0.8517,0.852,0.8515,0.8515,0.8522,0.8523,0.8524,0.8525,0.8509,0,0,0,0,0,0.8552,0.8552,0.8546,0.8549,0.8548,0.8542,0.8542,0.8538,0.8534,0.8533,0.8529,0.8526,0.8524,0.8523,0.8522,0.8524,0.8523,0.8526,0.8527,0.8528,0.8528,0.8529,0.853,0.8517,0.8517,0.8517,0,0,0.8557,0.8554,0.8554,0.8551,0.8549,0.8549,0.8541,0.8542,0.8541,0.8533,0.8533,0.853,0.8526,0.8527,0.8528,0.8525,0.8531,0.8529,0.8529,0.8529,0.8529,0.853,0.8531,0.8518,0.8518,0.8518,0,0,0.8567,0.8565,0.8567,0.8565,0.8561,0.8556,0.8557,0.8552,0.8549,0.8549,0.8543,0.8542,0.854,0.8537,0.8535,0.8542,0.8537,0.8542,0.8548,0.8548,0.8549,0.855,0.8552,0.8553,0.8542,0.8542,0.8542,0,0.8575,0.8575,0.8569,0.8569,0.8568,0.856,0.8562,0.8559,0.8555,0.8554,0.8551,0.8547,0.8544,0.8544,0.8546,0.8545,0.8544,0.8543,0.8549,0.855,0.8551,0.8553,0.8554,0.8543,0.8543,0.8543,0.8543,0,0.8584,0.8584,0.8586,0.8582,0.858,0.8581,0.8575,0.8574,0.857,0.8566,0.8565,0.8561,0.8558,0.8557,0.8553,0.8557,0.8555,0.8551,0.8546,0.8553,0.8554,0.8555,0.8544,0.8543,0.8543,0.8543,0,0,0.8601,0.8593,0.8594,0.8591,0.8586,0.8585,0.8585,0.8582,0.8582,0.8578,0.8578,0.8576,0.8571,0.8569,0.8565,0.8565,0.857,0.856,0.856,0.8562,0.8572,0.8576,0.8577,0.8567,0.8567,0.8567,0.8573,0,0.861,0.861,0.8604,0.8606,0.8605,0.8598,0.8598,0.8594,0.859,0.8588,0.8583,0.8581,0.8576,0.8575,0.8575,0.857,0.8572,0.8569,0.8566,0.8566,0.8567,0.8578,0.8581,0.8587,0.8573,0.8573,0.8573,0,0.8621,0.8618,0.8619,0.8613,0.8612,0.8613,0.8609,0.8607,0.8602,0.8599,0.8596,0.8591,0.859,0.8585,0.8583,0.8581,0.8579,0.8576,0.8576,0.8575,0.857,0.8577,0.8588,0.8589,0.8575,0.8574,0.8574,0,0.8632,0.8629,0.8629,0.8628,0.862,0.862,0.8617,0.8612,0.861,0.8607,0.8605,0.8601,0.8599,0.8596,0.8589,0.8586,0.8588,0.8582,0.8584,0.8585,0.8585,0.8585,0.8596,0.8584,0.8584,0.8584,0.8584,0,0.8643,0.8644,0.8634,0.8635,0.8635,0.8628,0.8629,0.8625,0.862,0.8619,0.8612,0.8611,0.8602,0.8599,0.8594,0.8593,0.8592,0.8589,0.8587,0.8589,0.859,0.8588,0.8587,0.8585,0.8584,0.8584,0.8584,0,0.8656,0.865,0.865,0.8643,0.8641,0.8641,0.8635,0.8634,0.8629,0.8628,0.8627,0.8619,0.8616,0.8609,0.8603,0.86,0.8599,0.8597,0.8601,0.86,0.8603,0.8602,0.8613,0.8614,0.8601,0.8602,0.8602,0,0.8663,0.8664,0.8657,0.8655,0.8652,0.865,0.8648,0.8641,0.8639,0.8633,0.8633,0.8629,0.8625,0.862,0.8614,0.8609,0.8606,0.861,0.8606,0.8607,0.8606,0.8606,0.8605,0.8611,0.8612,0.8612,0.8612,0,0.8676,0.8673,0.867,0.8667,0.8664,0.8661,0.8657,0.8656,0.8647,0.8645,0.8642,0.8639,0.8633,0.8629,0.8624,0.862,0.8614,0.8613,0.8613,0.8616,0.8618,0.8616,0.8604,0.8613,0.8613,0.8613,0.8613,0.8613,0.8686,0.8686,0.8681,0.8678,0.8674,0.8671,0.8669,0.8664,0.8661,0.8656,0.8652,0.8648,0.8642,0.8634,0.863,0.8627,0.8624,0.8625,0.8625,0.8625,0.8626,0.8618,0.8626,0.8626,0.8626,0.8626,0.8626,0,0.8699,0.8695,0.8692,0.8687,0.8684,0.8679,0.8674,0.8672,0.867,0.8664,0.8661,0.8656,0.8652,0.8645,0.864,0.8638,0.8636,0.8637,0.8637,0.8636,0.8629,0.8629,0.864,0.864,0.864,0.864,0.864,0.864,0.8705,0.8704,0.87,0.8697,0.8692,0.8689,0.8687,0.8683,0.8679,0.8674,0.8671,0.8666,0.866,0.8654,0.8649,0.8647,0.8646,0.8648,0.8645,0.8638,0.8637,0.8636,0.8636,0.8648,0.8648,0.8653,0.8653,0.8653]}]]